Location: Staunton
(38.1490°N, 79.0720°W)
Time: 12:39:21
(UTC-05:00)

ISS - Pass Details

Date: 21 September 2018
Orbit: 402 x 409 km, 51.6° (Epoch: 13 November)

Event Time Altitude Azimuth Distance (km) Brightness Sun altitude
Rises 21:12:31 0° 243° (WSW) 2,334 0.6 -23.5°
Reaches altitude 10° 21:14:39 10° 249° (WSW) 1,475 -0.4 -23.9°
Enters shadow 21:17:01 36° 281° (W) 664 -2.3 -24.3°
